Regional Weather Roundup
Issued by NWS Green Bay, WI

Home | Current Version | Previous Version | Graphics & Text | Print | Product List | Glossary Off
Versions: 1 2 3 4 5 6 7 8 9 10 11 12 13 14 15 16 17 18 19 20 21 22 23 24 25 26 27 28 29 30 31 32 33 34 35 36 37 38 39 40 41 42 43 44 45 46 47 48 49 50

000
ASUS43 KGRB 021959
RWRGRB

NORTH-CENTRAL AND NORTHEAST WISCONSIN REGIONAL WEATHER ROUNDUP
NATIONAL WEATHER SERVICE GREEN BAY WI
300 PM CDT TUE SEP 02 2014

WIZ005-009-010>012-018-019-022100-
NORTH CENTRAL WISCONSIN

CITY           SKY/WX    TMP DP  RH WIND       PRES   REMARKS
IRONWOOD       NOT AVBL
MANITOWISH WTR NOT AVBL
ARBOR VITAE    NOT AVBL
EAGLE RIVER    NOT AVBL
LAND O LAKES   NOT AVBL
RHINELANDER    MOSUNNY   72  50  45 NW8       29.88F
PHILLIPS       NOT AVBL
ANTIGO         NOT AVBL
TOMAHAWK       NOT AVBL
MERRILL        NOT AVBL
$$

WIZ013-073-022100-
NORTHEAST WISCONSIN

CITY           SKY/WX    TMP DP  RH WIND       PRES   REMARKS
IRON MOUNTAIN  MOSUNNY   76  50  40 W8G16     29.83S
MARINETTE      MOSUNNY   73  61  64 SW7       29.84R
$$

WIZ017-030-035>037-045-022100-
CENTRAL WISCONSIN

CITY           SKY/WX    TMP DP  RH WIND       PRES   REMARKS
MEDFORD        NOT AVBL
WAUSAU         SUNNY     75  54  47 W14       29.87F
MOSINEE        MOSUNNY   73  57  56 W13       29.89F
MARSHFIELD     PTSUNNY   73  57  57 W10       29.89S
WISC RAPIDS    MOSUNNY   77  57  50 W10       29.91S
STEVENS POINT  NOT AVBL
WAUPACA        NOT AVBL
SHAWANO        PTSUNNY   76  59  54 W9        29.86F
CLINTONVILLE   NOT AVBL
$$

WIZ038-039-048-051-022100-
FOX VALLEY

CITY           SKY/WX    TMP DP  RH WIND       PRES   REMARKS
NWS GREEN BAY  MOSUNNY   76  60  57 W15       29.87S
APPLETON       PTSUNNY   75  57  53 W9        29.89S
OSHKOSH        MOSUNNY   75  60  59 W6        29.88S
FOND DU LAC    PTSUNNY   76  59  55 W10       29.89S
$$

WIZ022-050-052-022100-
EAST CENTRAL WISCONSIN

CITY           SKY/WX    TMP DP  RH WIND       PRES   REMARKS
STURGEON BAY   SUNNY     73  57  56 SW14      29.87S
MANITOWOC      NOT AVBL
SHEBOYGAN      MOSUNNY   77  61  57 W5        29.88F
$$

LMZ563-521-522-541>543-022100-
LAKESHORE

STATION/POSITION TIME  TEMP    WIND        PRES    VSBY  WAVE
                       AIR SEA DIR/SP/G                  HT/PER
                 (UTC) (F)     (DEG/KT/KT) (MB)    (MI)  (FT/S)
SHEBOYGAN LKSHOR 1900   73 50  240/ 12/ 15 1012.1R
KEWAUNEE LKSHORE 1900   63     180/  8/ 10 1010.8R
NORTHPORT PIER   1900   73     250/  6/ 14 1010.2S
N MID LAKE BUOY  1900   65 65  230/ 10/ 10 1010.4R         1/ 5
S GREEN BAY BUOY 1900   69     VRB 10/ 12  1012.2R
CHAMBERS ISLAND  1900   70     170/  7/ 14 1010.8S
MENOMINEE LKSHOR 1900   71     190/  8/ 12 1011.1R
$$



USA.gov is the U.S. government's official web portal to all federal, state and local government web resources and services.